Time,TemperatureF,DewpointF,PressureIn,WindDirection,WindDirectionDegrees,WindSpeedMPH,WindSpeedGustMPH,Humidity,HourlyPrecipIn,Conditions,Clouds,dailyrainin,SoftwareType,DateUTC
2013-03-09 00:00:00,29.6,25.1,30.24,NE,46,4.0,8.0,83,0.00,,,0.10,Wunderground v.1.15,2013-03-09 05:00:00,
2013-03-09 00:05:00,29.6,25.1,30.23,NE,36,4.0,8.0,83,0.00,,,0.00,Wunderground v.1.15,2013-03-09 05:05:00,
2013-03-09 00:10:00,29.6,24.8,30.24,ENE,74,4.0,8.0,82,0.00,,,0.00,Wunderground v.1.15,2013-03-09 05:10:00,
2013-03-09 00:15:00,29.6,24.8,30.23,ENE,58,4.0,8.0,82,0.00,,,0.00,Wunderground v.1.15,2013-03-09 05:15:00,
2013-03-09 00:25:00,29.4,24.6,30.24,ENE,57,4.0,8.0,82,0.00,,,0.00,Wunderground v.1.15,2013-03-09 05:25:00,
2013-03-09 00:30:00,29.2,24.4,30.24,NE,47,3.0,8.0,82,0.00,,,0.00,Wunderground v.1.15,2013-03-09 05:30:00,
2013-03-09 00:35:00,29.1,24.6,30.24,NE,51,3.0,8.0,83,0.00,,,0.00,Wunderground v.1.15,2013-03-09 05:35:00,
2013-03-09 00:40:00,28.9,24.4,30.24,NE,34,4.0,4.0,83,0.00,,,0.00,Wunderground v.1.15,2013-03-09 05:40:00,
2013-03-09 00:45:00,28.7,24.2,30.24,NNE,29,3.0,8.0,83,0.00,,,0.00,Wunderground v.1.15,2013-03-09 05:45:00,
2013-03-09 00:50:00,28.6,24.4,30.24,NE,40,2.0,2.0,84,0.00,,,0.00,Wunderground v.1.15,2013-03-09 05:50:00,
2013-03-09 01:00:00,28.6,24.1,30.24,NE,48,2.0,8.0,83,0.00,,,0.00,Wunderground v.1.15,2013-03-09 06:00:00,
2013-03-09 01:05:00,28.5,24.0,30.24,ENE,75,3.0,8.0,83,0.00,,,0.00,Wunderground v.1.15,2013-03-09 06:05:00,
2013-03-09 01:10:00,28.5,24.0,30.24,NE,55,3.0,8.0,83,0.00,,,0.00,Wunderground v.1.15,2013-03-09 06:10:00,
2013-03-09 01:15:00,28.4,24.2,30.24,ENE,59,4.0,8.0,84,0.00,,,0.00,Wunderground v.1.15,2013-03-09 06:15:00,
2013-03-09 01:20:00,28.4,23.9,30.24,ENE,59,3.0,8.0,83,0.00,,,0.00,Wunderground v.1.15,2013-03-09 06:20:00,
2013-03-09 01:25:00,28.3,23.8,30.24,NE,49,3.0,8.0,83,0.00,,,0.00,Wunderground v.1.15,2013-03-09 06:25:00,
2013-03-09 01:30:00,28.1,23.9,30.24,NE,44,3.0,3.0,84,0.00,,,0.00,Wunderground v.1.15,2013-03-09 06:30:00,
2013-03-09 01:40:00,27.8,23.9,30.24,NE,43,3.0,8.0,85,0.00,,,0.00,Wunderground v.1.15,2013-03-09 06:40:00,
2013-03-09 01:45:00,27.6,23.7,30.24,NE,52,3.0,8.0,85,0.00,,,0.00,Wunderground v.1.15,2013-03-09 06:45:00,
2013-03-09 01:50:00,27.5,23.9,30.24,ENE,63,3.0,8.0,86,0.00,,,0.00,Wunderground v.1.15,2013-03-09 06:50:00,
2013-03-09 01:55:00,27.5,23.6,30.24,ENE,61,3.0,8.0,85,0.00,,,0.00,Wunderground v.1.15,2013-03-09 06:55:00,
2013-03-09 02:00:00,27.4,23.5,30.24,ENE,58,3.0,3.0,85,0.00,,,0.00,Wunderground v.1.15,2013-03-09 07:00:00,
2013-03-09 02:05:00,27.2,23.3,30.24,ENE,66,2.0,4.0,85,0.00,,,0.00,Wunderground v.1.15,2013-03-09 07:05:00,
2013-03-09 02:10:00,27.4,23.8,30.24,North,5,3.0,3.0,86,0.00,,,0.00,Wunderground v.1.15,2013-03-09 07:10:00,
2013-03-09 02:20:00,27.2,23.6,30.24,NE,45,3.0,3.0,86,0.00,,,0.00,Wunderground v.1.15,2013-03-09 07:20:00,
2013-03-09 02:25:00,27.2,23.6,30.24,NNE,15,4.0,5.0,86,0.00,,,0.00,Wunderground v.1.15,2013-03-09 07:25:00,
2013-03-09 02:30:00,27.2,23.6,30.24,East,79,3.0,8.0,86,0.00,,,0.00,Wunderground v.1.15,2013-03-09 07:30:00,
2013-03-09 02:35:00,27.2,23.3,30.24,NE,55,2.0,8.0,85,0.00,,,0.00,Wunderground v.1.15,2013-03-09 07:35:00,
2013-03-09 02:40:00,27.1,23.5,30.24,ENE,64,2.0,8.0,86,0.00,,,0.00,Wunderground v.1.15,2013-03-09 07:40:00,
2013-03-09 02:45:00,27.0,23.1,30.23,East,90,2.0,8.0,85,0.00,,,0.00,Wunderground v.1.15,2013-03-09 07:45:00,
2013-03-09 02:50:00,27.0,23.4,30.23,ENE,72,2.0,2.0,86,0.00,,,0.00,Wunderground v.1.15,2013-03-09 07:50:00,
2013-03-09 03:00:00,27.0,23.4,30.23,NE,51,2.0,2.0,86,0.00,,,0.00,Wunderground v.1.15,2013-03-09 08:00:00,
2013-03-09 03:05:00,27.0,23.4,30.23,NE,55,2.0,8.0,86,0.00,,,0.00,Wunderground v.1.15,2013-03-09 08:05:00,
2013-03-09 03:10:00,27.2,23.3,30.23,NE,49,2.0,8.0,85,0.00,,,0.00,Wunderground v.1.15,2013-03-09 08:10:00,
2013-03-09 03:15:00,27.3,23.4,30.23,NE,39,3.0,8.0,85,0.00,,,0.00,Wunderground v.1.15,2013-03-09 08:15:00,
2013-03-09 03:20:00,27.4,23.5,30.23,NNE,32,3.0,8.0,85,0.00,,,0.00,Wunderground v.1.15,2013-03-09 08:20:00,
2013-03-09 03:25:00,27.2,23.0,30.23,NE,55,3.0,8.0,84,0.00,,,0.00,Wunderground v.1.15,2013-03-09 08:25:00,
2013-03-09 03:35:00,27.2,23.0,30.23,NE,45,4.0,8.0,84,0.00,,,0.00,Wunderground v.1.15,2013-03-09 08:35:00,
2013-03-09 03:40:00,27.1,22.9,30.23,NE,55,3.0,8.0,84,0.00,,,0.00,Wunderground v.1.15,2013-03-09 08:40:00,
2013-03-09 03:45:00,26.9,23.0,30.23,NE,40,3.0,8.0,85,0.00,,,0.00,Wunderground v.1.15,2013-03-09 08:45:00,
2013-03-09 03:50:00,26.7,22.8,30.23,East,94,3.0,8.0,85,0.00,,,0.00,Wunderground v.1.15,2013-03-09 08:50:00,
2013-03-09 03:55:00,26.8,22.9,30.23,ENE,76,2.0,8.0,85,0.00,,,0.00,Wunderground v.1.15,2013-03-09 08:55:00,
2013-03-09 04:00:00,26.6,22.7,30.24,ENE,67,2.0,8.0,85,0.00,,,0.00,Wunderground v.1.15,2013-03-09 09:00:00,
2013-03-09 04:05:00,26.3,22.4,30.24,ENE,67,2.0,8.0,85,0.00,,,0.00,Wunderground v.1.15,2013-03-09 09:05:00,
2013-03-09 04:15:00,25.6,22.0,30.24,East,86,1.0,8.0,86,0.00,,,0.00,Wunderground v.1.15,2013-03-09 09:15:00,
2013-03-09 04:20:00,25.6,22.3,30.25,ENE,64,1.0,8.0,87,0.00,,,0.00,Wunderground v.1.15,2013-03-09 09:20:00,
2013-03-09 04:30:00,25.8,22.2,30.25,NE,53,2.0,8.0,86,0.00,,,0.00,Wunderground v.1.15,2013-03-09 09:30:00,
2013-03-09 04:35:00,25.7,22.1,30.25,East,79,2.0,8.0,86,0.00,,,0.00,Wunderground v.1.15,2013-03-09 09:35:00,
2013-03-09 04:40:00,26.0,22.7,30.26,ENE,64,2.0,8.0,87,0.00,,,0.00,Wunderground v.1.15,2013-03-09 09:40:00,
2013-03-09 04:50:00,26.7,23.1,30.26,NE,46,4.0,8.0,86,0.00,,,0.00,Wunderground v.1.15,2013-03-09 09:50:00,
2013-03-09 04:55:00,26.7,22.8,30.26,NE,56,3.0,8.0,85,0.00,,,0.00,Wunderground v.1.15,2013-03-09 09:55:00,
2013-03-09 05:00:00,26.6,22.7,30.26,East,98,1.0,8.0,85,0.00,,,0.00,Wunderground v.1.15,2013-03-09 10:00:00,
2013-03-09 05:05:00,26.5,22.6,30.27,East,90,2.0,8.0,85,0.00,,,0.00,Wunderground v.1.15,2013-03-09 10:05:00,
2013-03-09 05:15:00,26.2,22.6,30.27,ENE,70,2.0,8.0,86,0.00,,,0.00,Wunderground v.1.15,2013-03-09 10:15:00,
2013-03-09 05:20:00,26.1,22.5,30.27,NE,54,2.0,8.0,86,0.00,,,0.00,Wunderground v.1.15,2013-03-09 10:20:00,
2013-03-09 05:25:00,26.1,22.5,30.27,NE,42,2.0,8.0,86,0.00,,,0.00,Wunderground v.1.15,2013-03-09 10:25:00,
2013-03-09 05:30:00,26.2,22.6,30.27,NE,55,2.0,8.0,86,0.00,,,0.00,Wunderground v.1.15,2013-03-09 10:30:00,
2013-03-09 05:35:00,26.2,22.6,30.27,ENE,62,3.0,8.0,86,0.00,,,0.00,Wunderground v.1.15,2013-03-09 10:35:00,
2013-03-09 05:40:00,26.1,22.2,30.27,ENE,64,3.0,8.0,85,0.00,,,0.00,Wunderground v.1.15,2013-03-09 10:40:00,
2013-03-09 05:45:00,26.0,22.1,30.27,ENE,61,3.0,8.0,85,0.00,,,0.00,Wunderground v.1.15,2013-03-09 10:45:00,
2013-03-09 05:50:00,26.0,22.4,30.27,NE,44,3.0,3.0,86,0.00,,,0.00,Wunderground v.1.15,2013-03-09 10:50:00,
2013-03-09 05:55:00,26.0,22.1,30.27,ENE,64,2.0,8.0,85,0.00,,,0.00,Wunderground v.1.15,2013-03-09 10:55:00,
2013-03-09 06:00:00,25.7,22.1,30.27,NE,51,2.0,8.0,86,0.00,,,0.00,Wunderground v.1.15,2013-03-09 11:00:00,
2013-03-09 06:10:00,25.5,21.9,30.27,NE,51,3.0,8.0,86,0.00,,,0.00,Wunderground v.1.15,2013-03-09 11:10:00,
2013-03-09 06:15:00,25.6,22.0,30.27,ENE,70,3.0,8.0,86,0.00,,,0.00,Wunderground v.1.15,2013-03-09 11:15:00,
2013-03-09 06:20:00,25.7,22.1,30.27,NE,40,3.0,3.0,86,0.00,,,0.00,Wunderground v.1.15,2013-03-09 11:20:00,
2013-03-09 06:25:00,25.7,22.1,30.28,NE,44,2.0,4.0,86,0.00,,,0.00,Wunderground v.1.15,2013-03-09 11:25:00,
2013-03-09 06:30:00,25.7,22.1,30.28,NNE,31,3.0,3.0,86,0.00,,,0.00,Wunderground v.1.15,2013-03-09 11:30:00,
2013-03-09 06:35:00,25.6,21.7,30.28,East,91,3.0,8.0,85,0.00,,,0.00,Wunderground v.1.15,2013-03-09 11:35:00,
2013-03-09 06:40:00,25.9,22.3,30.28,ENE,69,3.0,3.0,86,0.00,,,0.00,Wunderground v.1.15,2013-03-09 11:40:00,
2013-03-09 06:50:00,26.4,22.2,30.28,NE,55,2.0,8.0,84,0.00,,,0.00,Wunderground v.1.15,2013-03-09 11:50:00,
2013-03-09 06:55:00,26.6,22.4,30.28,NE,44,2.0,8.0,84,0.00,,,0.00,Wunderground v.1.15,2013-03-09 11:55:00,
2013-03-09 07:00:00,26.6,22.4,30.28,NE,37,3.0,3.0,84,0.00,,,0.00,Wunderground v.1.15,2013-03-09 12:00:00,
2013-03-09 07:05:00,26.6,22.4,30.28,NE,50,3.0,8.0,84,0.00,,,0.00,Wunderground v.1.15,2013-03-09 12:05:00,
2013-03-09 07:10:00,26.9,22.7,30.28,NE,40,2.0,2.0,84,0.00,,,0.00,Wunderground v.1.15,2013-03-09 12:10:00,
2013-03-09 07:15:00,27.1,22.6,30.28,ENE,58,2.0,8.0,83,0.00,,,0.00,Wunderground v.1.15,2013-03-09 12:15:00,
2013-03-09 07:20:00,27.4,22.9,30.29,NE,53,2.0,8.0,83,0.00,,,0.00,Wunderground v.1.15,2013-03-09 12:20:00,
2013-03-09 07:30:00,28.1,23.3,30.29,NE,40,3.0,3.0,82,0.00,,,0.00,Wunderground v.1.15,2013-03-09 12:30:00,
2013-03-09 07:35:00,28.4,23.3,30.29,East,80,3.0,8.0,81,0.00,,,0.00,Wunderground v.1.15,2013-03-09 12:35:00,
2013-03-09 07:40:00,28.6,23.5,30.29,ENE,65,2.0,2.0,81,0.00,,,0.00,Wunderground v.1.15,2013-03-09 12:40:00,
2013-03-09 07:45:00,28.7,23.6,30.29,NE,48,3.0,3.0,81,0.00,,,0.00,Wunderground v.1.15,2013-03-09 12:45:00,
2013-03-09 07:50:00,28.8,23.4,30.29,ENE,72,3.0,8.0,80,0.00,,,0.00,Wunderground v.1.15,2013-03-09 12:50:00,
2013-03-09 07:55:00,29.0,23.6,30.29,NE,47,4.0,8.0,80,0.00,,,0.00,Wunderground v.1.15,2013-03-09 12:55:00,
2013-03-09 08:00:00,29.3,23.6,30.29,NE,52,4.0,4.0,79,0.00,,,0.00,Wunderground v.1.15,2013-03-09 13:00:00,
2013-03-09 08:10:00,29.8,24.1,30.29,NE,39,4.0,4.0,79,0.00,,,0.00,Wunderground v.1.15,2013-03-09 13:10:00,
2013-03-09 08:15:00,30.1,24.1,30.29,ENE,63,5.0,7.0,78,0.00,,,0.00,Wunderground v.1.15,2013-03-09 13:15:00,
2013-03-09 08:20:00,30.2,23.9,30.30,NE,40,5.0,5.0,77,0.00,,,0.00,Wunderground v.1.15,2013-03-09 13:20:00,
2013-03-09 08:25:00,30.7,24.7,30.30,ENE,67,5.0,9.0,78,0.00,,,0.00,Wunderground v.1.15,2013-03-09 13:25:00,
2013-03-09 08:30:00,30.8,24.1,30.30,NE,44,5.0,5.0,76,0.00,,,0.00,Wunderground v.1.15,2013-03-09 13:30:00,
2013-03-09 08:35:00,31.3,24.6,30.30,ENE,58,5.0,7.0,76,0.00,,,0.00,Wunderground v.1.15,2013-03-09 13:35:00,
2013-03-09 08:40:00,31.7,25.0,30.30,NE,46,4.0,8.0,76,0.00,,,0.01,Wunderground v.1.15,2013-03-09 13:40:00,
2013-03-09 08:45:00,32.0,25.0,30.30,NE,55,4.0,8.0,75,0.00,,,0.01,Wunderground v.1.15,2013-03-09 13:45:00,
2013-03-09 08:50:00,32.7,25.6,30.30,NE,47,3.0,3.0,75,0.00,,,0.01,Wunderground v.1.15,2013-03-09 13:50:00,
2013-03-09 09:00:00,33.5,25.8,30.30,NE,43,3.0,3.0,73,0.00,,,0.01,Wunderground v.1.15,2013-03-09 14:00:00,
2013-03-09 09:05:00,33.9,25.8,30.30,ENE,70,3.0,8.0,72,0.00,,,0.02,Wunderground v.1.15,2013-03-09 14:05:00,
2013-03-09 09:10:00,33.9,25.8,30.30,ESE,105,3.0,3.0,72,0.00,,,0.02,Wunderground v.1.15,2013-03-09 14:10:00,
2013-03-09 09:15:00,34.1,26.0,30.30,ENE,66,3.0,7.0,72,0.00,,,0.02,Wunderground v.1.15,2013-03-09 14:15:00,
2013-03-09 09:20:00,34.1,26.0,30.30,NNW,346,4.0,4.0,72,0.00,,,0.02,Wunderground v.1.15,2013-03-09 14:20:00,
2013-03-09 09:25:00,34.1,25.7,30.30,North,355,5.0,5.0,71,0.00,,,0.02,Wunderground v.1.15,2013-03-09 14:25:00,
2013-03-09 09:30:00,34.2,25.4,30.30,ENE,66,5.0,9.0,70,0.00,,,0.02,Wunderground v.1.15,2013-03-09 14:30:00,
2013-03-09 09:35:00,34.2,25.4,30.30,NE,34,6.0,9.0,70,0.00,,,0.03,Wunderground v.1.15,2013-03-09 14:35:00,
2013-03-09 09:45:00,34.6,25.5,30.30,NNE,23,6.0,10.0,69,0.00,,,0.03,Wunderground v.1.15,2013-03-09 14:45:00,
2013-03-09 09:50:00,34.9,25.8,30.30,ENE,74,7.0,7.0,69,0.00,,,0.03,Wunderground v.1.15,2013-03-09 14:50:00,
2013-03-09 09:55:00,35.9,27.1,30.30,NE,55,4.0,8.0,70,0.00,,,0.03,Wunderground v.1.15,2013-03-09 14:55:00,
2013-03-09 10:00:00,36.5,26.6,30.31,East,90,2.0,8.0,67,0.00,,,0.04,Wunderground v.1.15,2013-03-09 15:00:00,
2013-03-09 10:05:00,36.7,26.8,30.31,NE,53,3.0,8.0,67,0.00,,,0.04,Wunderground v.1.15,2013-03-09 15:05:00,
2013-03-09 10:10:00,37.4,27.1,30.31,ENE,59,3.0,8.0,66,0.00,,,0.04,Wunderground v.1.15,2013-03-09 15:10:00,
2013-03-09 10:15:00,37.3,26.2,30.31,NE,35,3.0,8.0,64,0.00,,,0.04,Wunderground v.1.15,2013-03-09 15:15:00,
2013-03-09 10:25:00,37.7,27.0,30.31,NE,39,4.0,8.0,65,0.00,,,0.05,Wunderground v.1.15,2013-03-09 15:25:00,
2013-03-09 10:35:00,38.4,27.7,30.31,ENE,62,3.0,8.0,65,0.07,,,0.06,Wunderground v.1.15,2013-03-09 15:35:00,
2013-03-09 10:40:00,38.5,27.4,30.31,NNE,28,4.0,8.0,64,0.04,,,0.06,Wunderground v.1.15,2013-03-09 15:40:00,
2013-03-09 10:45:00,38.4,26.9,30.31,ENE,66,5.0,8.0,63,0.04,,,0.07,Wunderground v.1.15,2013-03-09 15:45:00,
2013-03-09 10:50:00,38.4,27.3,30.31,North,360,5.0,5.0,64,0.04,,,0.07,Wunderground v.1.15,2013-03-09 15:50:00,
2013-03-09 11:00:00,39.4,27.8,30.31,SE,126,3.0,3.0,63,0.06,,,0.08,Wunderground v.1.15,2013-03-09 16:00:00,
2013-03-09 11:05:00,39.6,26.8,30.31,NNE,15,4.0,5.0,60,0.05,,,0.09,Wunderground v.1.15,2013-03-09 16:05:00,
2013-03-09 11:10:00,39.4,26.7,30.31,NE,40,5.0,8.0,60,0.05,,,0.09,Wunderground v.1.15,2013-03-09 16:10:00,
2013-03-09 11:15:00,39.5,27.2,30.31,NE,54,5.0,8.0,61,0.05,,,0.09,Wunderground v.1.15,2013-03-09 16:15:00,
2013-03-09 11:20:00,39.8,26.6,30.31,East,86,4.0,8.0,59,0.04,,,0.10,Wunderground v.1.15,2013-03-09 16:20:00,
2013-03-09 11:25:00,40.5,27.3,30.31,NE,34,3.0,8.0,59,0.04,,,0.10,Wunderground v.1.15,2013-03-09 16:25:00,
2013-03-09 11:30:00,41.5,28.2,30.31,NNW,330,2.0,8.0,59,0.04,,,0.10,Wunderground v.1.15,2013-03-09 16:30:00,
2013-03-09 11:40:00,41.3,27.6,30.31,NNW,338,3.0,8.0,58,0.04,,,0.11,Wunderground v.1.15,2013-03-09 16:40:00,
2013-03-09 11:50:00,41.4,26.9,30.31,NE,45,4.0,8.0,56,0.05,,,0.12,Wunderground v.1.15,2013-03-09 16:50:00,
2013-03-09 11:55:00,41.0,26.5,30.30,NE,53,5.0,8.0,56,0.05,,,0.12,Wunderground v.1.15,2013-03-09 16:55:00,
2013-03-09 12:00:00,41.0,27.3,30.30,NNE,30,5.0,5.0,58,0.04,,,0.12,Wunderground v.1.15,2013-03-09 17:00:00,
2013-03-09 12:05:00,41.8,27.7,30.30,NNW,329,4.0,8.0,57,0.00,,,0.12,Wunderground v.1.15,2013-03-09 17:05:00,
2013-03-09 12:10:00,42.1,27.5,30.30,NNE,22,3.0,8.0,56,0.00,,,0.13,Wunderground v.1.15,2013-03-09 17:10:00,
2013-03-09 12:15:00,42.8,28.2,30.30,NNW,347,3.0,8.0,56,0.00,,,0.13,Wunderground v.1.15,2013-03-09 17:15:00,
2013-03-09 12:25:00,43.7,28.1,30.30,ENE,76,3.0,8.0,54,0.00,,,0.13,Wunderground v.1.15,2013-03-09 17:25:00,
2013-03-09 12:30:00,43.8,27.8,30.29,NNE,28,4.0,4.0,53,0.00,,,0.13,Wunderground v.1.15,2013-03-09 17:30:00,
2013-03-09 12:35:00,43.9,27.9,30.29,NE,43,4.0,5.0,53,0.00,,,0.13,Wunderground v.1.15,2013-03-09 17:35:00,
2013-03-09 12:40:00,43.7,27.7,30.29,NNE,22,4.0,4.0,53,0.00,,,0.13,Wunderground v.1.15,2013-03-09 17:40:00,
2013-03-09 12:45:00,44.0,28.0,30.29,NE,50,4.0,5.0,53,0.00,,,0.14,Wunderground v.1.15,2013-03-09 17:45:00,
2013-03-09 12:50:00,44.0,28.0,30.28,NE,56,4.0,8.0,53,0.00,,,0.14,Wunderground v.1.15,2013-03-09 17:50:00,
2013-03-09 12:55:00,44.3,27.8,30.28,North,5,4.0,8.0,52,0.00,,,0.14,Wunderground v.1.15,2013-03-09 17:55:00,
2013-03-09 13:05:00,44.0,27.5,30.28,NNE,24,5.0,8.0,52,0.00,,,0.14,Wunderground v.1.15,2013-03-09 18:05:00,
2013-03-09 13:10:00,44.5,27.5,30.28,NNE,24,4.0,8.0,51,0.00,,,0.14,Wunderground v.1.15,2013-03-09 18:10:00,
2013-03-09 13:15:00,45.0,28.4,30.27,ENE,71,3.0,8.0,52,0.00,,,0.14,Wunderground v.1.15,2013-03-09 18:15:00,
2013-03-09 13:20:00,45.4,27.3,30.27,ENE,59,3.0,8.0,49,0.00,,,0.14,Wunderground v.1.15,2013-03-09 18:20:00,
2013-03-09 13:25:00,45.5,27.4,30.27,North,11,4.0,8.0,49,0.00,,,0.14,Wunderground v.1.15,2013-03-09 18:25:00,
2013-03-09 13:30:00,45.7,27.6,30.27,NE,43,4.0,8.0,49,0.00,,,0.14,Wunderground v.1.15,2013-03-09 18:30:00,
2013-03-09 13:35:00,45.4,26.8,30.27,ENE,65,5.0,8.0,48,0.00,,,0.14,Wunderground v.1.15,2013-03-09 18:35:00,
2013-03-09 13:40:00,45.6,27.5,30.26,NNE,33,5.0,8.0,49,0.00,,,0.14,Wunderground v.1.15,2013-03-09 18:40:00,
2013-03-09 13:50:00,45.9,27.3,30.26,NNE,14,4.0,8.0,48,0.00,,,0.14,Wunderground v.1.15,2013-03-09 18:50:00,
2013-03-09 13:55:00,45.9,27.3,30.26,North,5,4.0,8.0,48,0.00,,,0.14,Wunderground v.1.15,2013-03-09 18:55:00,
2013-03-09 14:00:00,46.2,28.1,30.26,North,11,4.0,8.0,49,0.00,,,0.14,Wunderground v.1.15,2013-03-09 19:00:00,
2013-03-09 14:05:00,46.9,27.7,30.26,NNE,19,3.0,8.0,47,0.00,,,0.14,Wunderground v.1.15,2013-03-09 19:05:00,
2013-03-09 14:10:00,47.0,28.3,30.26,North,5,3.0,3.0,48,0.00,,,0.14,Wunderground v.1.15,2013-03-09 19:10:00,
2013-03-09 14:15:00,47.2,27.5,30.25,NNE,30,3.0,8.0,46,0.00,,,0.14,Wunderground v.1.15,2013-03-09 19:15:00,
2013-03-09 14:25:00,47.0,26.7,30.25,North,355,4.0,8.0,45,0.00,,,0.14,Wunderground v.1.15,2013-03-09 19:25:00,
2013-03-09 14:30:00,47.5,27.7,30.25,NE,38,4.0,4.0,46,0.00,,,0.14,Wunderground v.1.15,2013-03-09 19:30:00,
2013-03-09 14:35:00,47.3,27.5,30.25,North,360,4.0,8.0,46,0.00,,,0.14,Wunderground v.1.15,2013-03-09 19:35:00,
2013-03-09 14:40:00,47.2,28.5,30.26,North,5,3.0,8.0,48,0.00,,,0.14,Wunderground v.1.15,2013-03-09 19:40:00,
2013-03-09 14:45:00,47.1,27.9,30.26,NE,34,4.0,8.0,47,0.00,,,0.14,Wunderground v.1.15,2013-03-09 19:45:00,
2013-03-09 14:50:00,47.5,28.3,30.26,NE,39,4.0,4.0,47,0.00,,,0.14,Wunderground v.1.15,2013-03-09 19:50:00,
2013-03-09 15:00:00,47.7,27.4,30.26,NE,49,4.0,8.0,45,0.00,,,0.14,Wunderground v.1.15,2013-03-09 20:00:00,
2013-03-09 15:05:00,47.8,28.0,30.26,NNE,16,3.0,8.0,46,0.00,,,0.14,Wunderground v.1.15,2013-03-09 20:05:00,
2013-03-09 15:10:00,47.2,28.0,30.26,North,360,4.0,8.0,47,0.00,,,0.14,Wunderground v.1.15,2013-03-09 20:10:00,
2013-03-09 15:15:00,47.2,28.0,30.27,ENE,67,4.0,8.0,47,0.00,,,0.14,Wunderground v.1.15,2013-03-09 20:15:00,
2013-03-09 15:20:00,47.5,28.3,30.27,ENE,69,3.0,8.0,47,0.00,,,0.14,Wunderground v.1.15,2013-03-09 20:20:00,
2013-03-09 15:25:00,46.9,27.7,30.27,NNW,341,4.0,8.0,47,0.00,,,0.14,Wunderground v.1.15,2013-03-09 20:25:00,
2013-03-09 15:30:00,46.3,27.7,30.28,ENE,59,5.0,5.0,48,0.00,,,0.14,Wunderground v.1.15,2013-03-09 20:30:00,
2013-03-09 15:40:00,46.3,27.7,30.28,NE,47,4.0,8.0,48,0.00,,,0.14,Wunderground v.1.15,2013-03-09 20:40:00,
2013-03-09 15:45:00,45.8,27.7,30.28,NNE,26,4.0,8.0,49,0.00,,,0.14,Wunderground v.1.15,2013-03-09 20:45:00,
2013-03-09 15:50:00,45.4,27.3,30.28,ENE,68,4.0,8.0,49,0.00,,,0.14,Wunderground v.1.15,2013-03-09 20:50:00,
2013-03-09 15:55:00,45.2,27.6,30.28,ENE,75,4.0,8.0,50,0.00,,,0.14,Wunderground v.1.15,2013-03-09 20:55:00,
2013-03-09 16:00:00,45.1,27.6,30.29,NE,49,4.0,4.0,50,0.00,,,0.14,Wunderground v.1.15,2013-03-09 21:00:00,
2013-03-09 16:05:00,45.0,27.5,30.28,NNE,28,3.0,8.0,50,0.00,,,0.14,Wunderground v.1.15,2013-03-09 21:05:00,
2013-03-09 16:15:00,44.9,27.4,30.28,ENE,61,4.0,5.0,50,0.00,,,0.14,Wunderground v.1.15,2013-03-09 21:15:00,
2013-03-09 16:20:00,44.8,27.3,30.28,NE,50,4.0,8.0,50,0.00,,,0.14,Wunderground v.1.15,2013-03-09 21:20:00,
2013-03-09 16:25:00,44.9,26.9,30.28,NE,38,4.0,8.0,49,0.00,,,0.14,Wunderground v.1.15,2013-03-09 21:25:00,
2013-03-09 16:30:00,44.7,27.2,30.28,NE,55,4.0,8.0,50,0.00,,,0.14,Wunderground v.1.15,2013-03-09 21:30:00,
2013-03-09 16:35:00,44.7,27.2,30.28,North,360,4.0,8.0,50,0.00,,,0.14,Wunderground v.1.15,2013-03-09 21:35:00,
2013-03-09 16:40:00,44.5,27.0,30.28,ENE,71,3.0,8.0,50,0.00,,,0.14,Wunderground v.1.15,2013-03-09 21:40:00,
2013-03-09 16:45:00,44.3,26.8,30.28,NNE,28,4.0,8.0,50,0.00,,,0.14,Wunderground v.1.15,2013-03-09 21:45:00,
2013-03-09 16:50:00,44.1,27.1,30.29,NNE,30,4.0,4.0,51,0.00,,,0.14,Wunderground v.1.15,2013-03-09 21:50:00,
2013-03-09 16:55:00,44.0,27.5,30.29,NNE,30,3.0,8.0,52,0.00,,,0.14,Wunderground v.1.15,2013-03-09 21:55:00,
2013-03-09 17:05:00,43.7,26.7,30.28,NNE,15,2.0,8.0,51,0.00,,,0.14,Wunderground v.1.15,2013-03-09 22:05:00,
2013-03-09 17:10:00,43.4,26.9,30.28,NE,52,2.0,8.0,52,0.00,,,0.14,Wunderground v.1.15,2013-03-09 22:10:00,
2013-03-09 17:15:00,43.3,26.8,30.28,ENE,65,2.0,8.0,52,0.00,,,0.14,Wunderground v.1.15,2013-03-09 22:15:00,
2013-03-09 17:20:00,43.2,27.2,30.29,NE,35,2.0,8.0,53,0.00,,,0.14,Wunderground v.1.15,2013-03-09 22:20:00,
2013-03-09 17:25:00,43.1,27.1,30.29,NNE,26,1.0,8.0,53,0.00,,,0.14,Wunderground v.1.15,2013-03-09 22:25:00,
2013-03-09 17:30:00,42.9,26.9,30.29,NE,40,1.0,8.0,53,0.00,,,0.14,Wunderground v.1.15,2013-03-09 22:30:00,
2013-03-09 17:40:00,42.4,26.5,30.30,NNE,25,1.0,8.0,53,0.00,,,0.14,Wunderground v.1.15,2013-03-09 22:40:00,
2013-03-09 17:45:00,42.2,26.3,30.30,NE,51,1.0,8.0,53,0.00,,,0.14,Wunderground v.1.15,2013-03-09 22:45:00,
2013-03-09 17:50:00,42.1,26.2,30.30,NNE,31,1.0,1.0,53,0.00,,,0.14,Wunderground v.1.15,2013-03-09 22:50:00,
2013-03-09 17:55:00,41.9,26.4,30.30,NNE,31,0.0,8.0,54,0.00,,,0.14,Wunderground v.1.15,2013-03-09 22:55:00,
2013-03-09 18:00:00,41.6,26.6,30.30,NE,52,1.0,8.0,55,0.00,,,0.14,Wunderground v.1.15,2013-03-09 23:00:00,
2013-03-09 18:05:00,41.2,26.2,30.30,NE,51,2.0,8.0,55,0.00,,,0.14,Wunderground v.1.15,2013-03-09 23:05:00,
2013-03-09 18:10:00,40.9,26.4,30.30,NE,47,2.0,8.0,56,0.00,,,0.14,Wunderground v.1.15,2013-03-09 23:10:00,
2013-03-09 18:15:00,40.7,26.2,30.30,NNE,33,2.0,8.0,56,0.00,,,0.14,Wunderground v.1.15,2013-03-09 23:15:00,
2013-03-09 18:25:00,40.2,26.2,30.30,NE,45,2.0,8.0,57,0.00,,,0.14,Wunderground v.1.15,2013-03-09 23:25:00,
2013-03-09 18:30:00,39.9,26.3,30.31,NE,36,1.0,8.0,58,0.00,,,0.14,Wunderground v.1.15,2013-03-09 23:30:00,
2013-03-09 18:35:00,39.5,26.8,30.31,ENE,63,1.0,8.0,60,0.00,,,0.14,Wunderground v.1.15,2013-03-09 23:35:00,
2013-03-09 18:40:00,39.0,26.7,30.31,ENE,57,2.0,2.0,61,0.00,,,0.14,Wunderground v.1.15,2013-03-09 23:40:00,
2013-03-09 18:45:00,38.7,26.8,30.31,NE,43,2.0,8.0,62,0.00,,,0.14,Wunderground v.1.15,2013-03-09 23:45:00,
2013-03-09 18:50:00,38.7,26.4,30.31,ENE,59,2.0,8.0,61,0.00,,,0.14,Wunderground v.1.15,2013-03-09 23:50:00,
2013-03-09 19:00:00,38.5,26.2,30.31,ENE,61,2.0,8.0,61,0.00,,,0.14,Wunderground v.1.15,2013-03-10 00:00:00,
2013-03-09 19:05:00,38.4,26.1,30.31,ENE,57,2.0,8.0,61,0.00,,,0.14,Wunderground v.1.15,2013-03-10 00:05:00,
2013-03-09 19:15:00,38.1,25.8,30.32,NE,47,2.0,8.0,61,0.00,,,0.14,Wunderground v.1.15,2013-03-10 00:15:00,
2013-03-09 19:20:00,37.7,26.2,30.32,ENE,59,2.0,2.0,63,0.00,,,0.14,Wunderground v.1.15,2013-03-10 00:20:00,
2013-03-09 19:25:00,37.3,25.8,30.32,NE,34,3.0,3.0,63,0.00,,,0.14,Wunderground v.1.15,2013-03-10 00:25:00,
2013-03-09 19:30:00,37.1,25.7,30.32,NE,39,2.0,8.0,63,0.00,,,0.14,Wunderground v.1.15,2013-03-10 00:30:00,
2013-03-09 19:35:00,37.3,25.5,30.32,NE,53,2.0,8.0,62,0.00,,,0.14,Wunderground v.1.15,2013-03-10 00:35:00,
2013-03-09 19:45:00,37.0,25.9,30.31,ENE,65,2.0,8.0,64,0.00,,,0.14,Wunderground v.1.15,2013-03-10 00:45:00,
2013-03-09 19:50:00,36.6,25.6,30.32,ENE,64,2.0,2.0,64,0.00,,,0.14,Wunderground v.1.15,2013-03-10 00:50:00,
2013-03-09 19:55:00,36.2,26.6,30.32,ENE,64,1.0,8.0,68,0.00,,,0.14,Wunderground v.1.15,2013-03-10 00:55:00,
2013-03-09 20:00:00,35.7,26.2,30.32,ENE,64,0.0,8.0,68,0.00,,,0.14,Wunderground v.1.15,2013-03-10 01:00:00,
2013-03-09 20:05:00,35.3,25.8,30.32,ENE,64,1.0,8.0,68,0.00,,,0.14,Wunderground v.1.15,2013-03-10 01:05:00,
2013-03-09 20:10:00,35.1,25.9,30.32,ENE,64,1.0,8.0,69,0.00,,,0.14,Wunderground v.1.15,2013-03-10 01:10:00,
2013-03-09 20:20:00,34.8,26.0,30.32,ENE,64,2.0,8.0,70,0.00,,,0.14,Wunderground v.1.15,2013-03-10 01:20:00,
2013-03-09 20:30:00,35.7,25.4,30.32,NE,50,2.0,2.0,66,0.00,,,0.14,Wunderground v.1.15,2013-03-10 01:30:00,
2013-03-09 20:35:00,36.8,25.8,30.32,NE,55,2.0,8.0,64,0.00,,,0.14,Wunderground v.1.15,2013-03-10 01:35:00,
2013-03-09 20:40:00,37.0,26.7,30.32,NE,55,2.0,2.0,66,0.00,,,0.14,Wunderground v.1.15,2013-03-10 01:40:00,
2013-03-09 20:45:00,36.1,26.9,30.32,NE,55,1.0,8.0,69,0.00,,,0.14,Wunderground v.1.15,2013-03-10 01:45:00,
2013-03-09 20:50:00,35.3,25.4,30.33,NE,55,0.0,8.0,67,0.00,,,0.14,Wunderground v.1.15,2013-03-10 01:50:00,
2013-03-09 20:55:00,35.3,25.8,30.33,NE,55,1.0,8.0,68,0.00,,,0.14,Wunderground v.1.15,2013-03-10 01:55:00,
2013-03-09 21:00:00,35.1,25.6,30.32,ENE,60,1.0,1.0,68,0.00,,,0.14,Wunderground v.1.15,2013-03-10 02:00:00,
2013-03-09 21:05:00,35.1,25.6,30.32,ENE,60,1.0,8.0,68,0.00,,,0.14,Wunderground v.1.15,2013-03-10 02:05:00,
2013-03-09 21:15:00,35.1,25.6,30.32,ENE,60,0.0,8.0,68,0.00,,,0.14,Wunderground v.1.15,2013-03-10 02:15:00,
2013-03-09 21:20:00,35.1,24.9,30.32,ENE,60,0.0,8.0,66,0.00,,,0.14,Wunderground v.1.15,2013-03-10 02:20:00,
2013-03-09 21:25:00,35.3,25.1,30.32,ENE,58,0.0,8.0,66,0.00,,,0.14,Wunderground v.1.15,2013-03-10 02:25:00,
2013-03-09 21:30:00,35.4,24.8,30.32,ENE,58,1.0,8.0,65,0.00,,,0.14,Wunderground v.1.15,2013-03-10 02:30:00,
2013-03-09 21:35:00,35.4,24.8,30.32,ENE,58,1.0,8.0,65,0.00,,,0.14,Wunderground v.1.15,2013-03-10 02:35:00,
2013-03-09 21:40:00,35.4,25.2,30.32,ENE,59,1.0,8.0,66,0.00,,,0.14,Wunderground v.1.15,2013-03-10 02:40:00,
2013-03-09 21:45:00,35.1,25.2,30.32,ENE,59,1.0,8.0,67,0.00,,,0.14,Wunderground v.1.15,2013-03-10 02:45:00,
2013-03-09 21:55:00,34.8,24.6,30.33,ENE,57,1.0,8.0,66,0.00,,,0.14,Wunderground v.1.15,2013-03-10 02:55:00,
2013-03-09 22:00:00,34.6,24.8,30.33,ENE,57,0.0,8.0,67,0.00,,,0.14,Wunderground v.1.15,2013-03-10 03:00:00,
2013-03-09 22:05:00,34.5,25.4,30.33,ENE,59,0.0,8.0,69,0.00,,,0.14,Wunderground v.1.15,2013-03-10 03:05:00,
2013-03-09 22:10:00,34.4,25.6,30.34,ENE,59,1.0,8.0,70,0.00,,,0.14,Wunderground v.1.15,2013-03-10 03:10:00,
2013-03-09 22:15:00,33.9,24.4,30.33,ENE,75,1.0,8.0,68,0.00,,,0.14,Wunderground v.1.15,2013-03-10 03:15:00,
2013-03-09 22:20:00,33.7,25.0,30.34,ENE,63,1.0,8.0,70,0.00,,,0.14,Wunderground v.1.15,2013-03-10 03:20:00,
2013-03-09 22:25:00,33.7,25.0,30.33,ENE,63,1.0,8.0,70,0.00,,,0.14,Wunderground v.1.15,2013-03-10 03:25:00,
2013-03-09 22:35:00,33.9,25.5,30.34,ENE,63,1.0,8.0,71,0.00,,,0.14,Wunderground v.1.15,2013-03-10 03:35:00,
2013-03-09 22:40:00,34.2,25.1,30.34,ENE,59,2.0,8.0,69,0.00,,,0.14,Wunderground v.1.15,2013-03-10 03:40:00,
2013-03-09 22:45:00,35.5,25.3,30.34,NE,51,3.0,8.0,66,0.00,,,0.14,Wunderground v.1.15,2013-03-10 03:45:00,
2013-03-09 22:50:00,35.8,25.5,30.34,ENE,61,2.0,8.0,66,0.00,,,0.14,Wunderground v.1.15,2013-03-10 03:50:00,
2013-03-09 22:55:00,35.0,25.5,30.34,ENE,65,2.0,8.0,68,0.00,,,0.14,Wunderground v.1.15,2013-03-10 03:55:00,
2013-03-09 23:00:00,34.3,24.8,30.34,ENE,61,1.0,1.0,68,0.00,,,0.14,Wunderground v.1.15,2013-03-10 04:00:00,
2013-03-09 23:10:00,33.9,25.1,30.34,ENE,61,0.0,8.0,70,0.00,,,0.14,Wunderground v.1.15,2013-03-10 04:10:00,
2013-03-09 23:15:00,33.6,24.5,30.34,ENE,61,1.0,8.0,69,0.00,,,0.14,Wunderground v.1.15,2013-03-10 04:15:00,
2013-03-09 23:20:00,33.3,24.9,30.34,ENE,61,1.0,8.0,71,0.00,,,0.14,Wunderground v.1.15,2013-03-10 04:20:00,
2013-03-09 23:25:00,32.9,24.5,30.34,ENE,61,1.0,8.0,71,0.00,,,0.14,Wunderground v.1.15,2013-03-10 04:25:00,
2013-03-09 23:30:00,32.8,24.4,30.34,ENE,61,1.0,1.0,71,0.00,,,0.14,Wunderground v.1.15,2013-03-10 04:30:00,
2013-03-09 23:35:00,32.9,24.5,30.33,ENE,61,0.0,8.0,71,0.00,,,0.14,Wunderground v.1.15,2013-03-10 04:35:00,
2013-03-09 23:45:00,33.3,24.9,30.33,ENE,61,2.0,8.0,71,0.00,,,0.14,Wunderground v.1.15,2013-03-10 04:45:00,
2013-03-09 23:50:00,33.1,24.7,30.34,ENE,61,1.0,1.0,71,0.00,,,0.14,Wunderground v.1.15,2013-03-10 04:50:00,
2013-03-09 23:55:00,32.9,24.5,30.34,ENE,61,1.0,8.0,71,0.00,,,0.14,Wunderground v.1.15,2013-03-10 04:55:00,